Location: Bilsen
(53.7722°N, 9.8765°E)
Time: 10:17:13
(UTC+00:00)

COSMOS 2428 - Pass Details

Date: 18 February 2020
Orbit: 846 x 856 km, 70.9° (Epoch: 09 April)

Event Time Altitude Azimuth Distance (km) Brightness Sun altitude
Exits shadow 02:34:38 38° 27° (NNE) 1,296 3.9 -35.1°
Drops below altitude 10° 02:38:04 10° 32° (NNE) 2,501 5.8 -34.6°
Sets 02:40:32 0° 33° (NNE) 3,441 6.7 -34.3°
